Waarnemingen

Advertentie
Mijn weer
Malung A, Zweden (2407): temperatuur & dauwpunt: 05.12.2017 04:00:00 - 11.12.2017 04:00:00 (CET)Malung A, Zweden (2407): windsnelheid & windstoten: 05.12.2017 04:00:00 - 11.12.2017 04:00:00 (CET)Malung A, Zweden (2407): windrichting: 05.12.2017 04:00:00 - 11.12.2017 04:00:00 (CET)Malung A, Zweden (2407): luchtdruk: 05.12.2017 04:00:00 - 11.12.2017 04:00:00 (CET)Malung A, Zweden (2407): zicht: 05.12.2017 04:00:00 - 11.12.2017 04:00:00 (CET)Malung A, Zweden (2407): neerslag: 05.12.2017 04:00:00 - 11.12.2017 04:00:00 (CET)
Datum & Tijd tt [°C] td [°C] ff [km/u] ff [kn] fx [km/u] fx [kn] dd ppp [hPa] vv [km] rr [mm]
11.12.2017 04:00:00 -4,1 -4,6 - - - - - 991,1 50 0,0
11.12.2017 03:00:00 -4,4 -4,9 1 0 5 3 NNW 990,5 50 0,0
11.12.2017 02:00:00 -4,7 -5,2 1 1 4 2 NO 990,1 6 0,1
11.12.2017 01:00:00 -5,1 -5,6 1 1 4 2 ZZW 989,7 9 0,0
11.12.2017 00:00:00 -5,9 -6,6 1 1 4 2 ONO 989,4 29 0,0
10.12.2017 23:00:00 -6,1 -6,8 3 2 5 3 NNW 989,1 22 0,0
10.12.2017 22:00:00 -6,4 -7,2 2 1 5 3 NW 988,6 6 0,1
10.12.2017 21:00:00 -6,7 -7,5 3 2 6 3 NNW 988,2 15 0,0
10.12.2017 20:00:00 -7,1 -7,9 3 2 9 5 NW 988,1 1,4 0,0
10.12.2017 19:00:00 -7,3 -8,2 5 3 8 4 NNW 987,8 24 0,0
10.12.2017 18:00:00 -7,6 -8,3 4 2 7 4 NW 987,5 3,2 0,1
10.12.2017 17:00:00 -7,9 -8,8 4 2 7 4 NNW 987,4 12 0,1
10.12.2017 16:00:00 -8,0 -8,9 4 2 7 4 NNW 987,1 1,1 0,0
10.12.2017 15:00:00 -7,6 -8,4 2 1 5 3 WNW 987,1 6 0,4
10.12.2017 14:00:00 -8,0 -8,8 1 1 4 2 N 987,2 1,0 0,0
10.12.2017 13:00:00 -8,8 -9,7 2 1 5 3 WNW 987,3 11 0,0
10.12.2017 12:00:00 -10,1 -11,3 2 1 4 2 ZZW 987,6 45 0,0
10.12.2017 11:00:00 -11,4 -12,7 4 2 6 4 N 987,9 34 0,0
10.12.2017 10:00:00 -12,4 -13,8 4 2 7 4 NNW 988,1 50 0,0
10.12.2017 09:00:00 -13,1 -14,5 4 2 8 4 NW 988,1 50 0,0
10.12.2017 08:00:00 -14,0 -15,6 2 1 3 2 N 988,2 50 0,0
10.12.2017 07:00:00 -14,2 -15,7 1 1 3 2 NW 988,0 50 0,0
10.12.2017 06:00:00 -14,0 -15,6 1 0 4 2 ZZO 988,2 50 0,0
10.12.2017 05:00:00 -13,5 -15,1 1 1 5 3 N 988,1 50 0,0
10.12.2017 04:00:00 -12,9 -14,2 3 2 6 3 NW 988,1 34 0,0
10.12.2017 03:00:00 -12,5 -13,9 1 1 6 3 ZW 988,3 33 0,0
10.12.2017 02:00:00 -11,4 -12,4 3 1 6 4 NNW 988,1 50 0,0
10.12.2017 01:00:00 -10,4 -11,4 2 1 4 2 N 988,2 38 0,0
10.12.2017 00:00:00 -9,6 -10,7 1 0 7 4 ZZW 988,1 12 0,0
09.12.2017 23:00:00 -8,8 -9,6 4 2 9 5 Z 987,9 1,1 0,0
09.12.2017 22:00:00 -8,0 -8,8 1 1 8 4 WNW 987,7 25 0,0
09.12.2017 21:00:00 -9,1 -10,3 - - - - - 987,7 21 0,0
09.12.2017 20:00:00 -6,0 -6,9 3 2 8 4 ZO 987,2 50 0,0
09.12.2017 19:00:00 -4,6 -5,7 6 3 9 5 NW 986,7 50 0,1
09.12.2017 18:00:00 -1,8 -5,1 3 2 16 9 NNW 986,3 50 0,0
09.12.2017 17:00:00 0,6 -4,2 8 4 24 13 WNW 985,7 50 0,0
09.12.2017 16:00:00 1,2 -3,3 14 8 23 12 WNW 985,1 50 0,0
09.12.2017 15:00:00 0,9 -2,9 10 5 29 16 NW 984,7 50 0,0
09.12.2017 14:00:00 1,3 -3,2 11 6 35 19 WNW 984,1 50 0,0
09.12.2017 13:00:00 0,7 -2,5 14 7 29 15 W 983,7 41 0,0
09.12.2017 12:00:00 0,5 -0,8 15 8 30 16 W 983,5 3,0 0,1
09.12.2017 11:00:00 0,1 -0,8 11 6 25 13 W 983,3 1,7 0,1
09.12.2017 10:00:00 0,0 -1,1 9 5 17 9 WNW 982,9 2,3 0,1
09.12.2017 09:00:00 -0,1 -0,7 5 3 21 11 W 982,4 7 0,4
09.12.2017 08:00:00 -0,2 -1,2 10 6 21 11 WNW 981,9 3,2 0,0
09.12.2017 07:00:00 0,4 -4,1 7 4 16 9 W 981,4 50 0,0
09.12.2017 06:00:00 0,3 -4,2 6 3 13 7 W 980,9 50 0,0
09.12.2017 05:00:00 -0,5 -4,4 5 3 16 8 NW 980,4 50 0,0
09.12.2017 04:00:00 -1,2 -3,6 2 1 11 6 ZO 980,4 50 0,0
09.12.2017 03:00:00 0,8 -3,7 4 2 13 7 ZW 979,8 50 0,0
09.12.2017 02:00:00 0,1 -2,6 4 2 16 9 ZZO 979,6 50 0,0
09.12.2017 01:00:00 0,5 -2,9 3 1 20 11 ZZO 979,3 50 0,0
09.12.2017 00:00:00 0,2 -3,5 10 5 24 13 ZW 978,7 50 0,0
08.12.2017 23:00:00 -0,8 -2,8 3 2 11 6 ZW 978,3 50 0,0
08.12.2017 22:00:00 -0,6 -3,1 8 5 20 11 Z 978,1 50 0,0
08.12.2017 21:00:00 -0,9 -2,9 5 3 17 9 ONO 977,7 50 0,0
08.12.2017 20:00:00 0,3 -2,1 7 4 16 9 OZO 977,0 50 0,0
08.12.2017 19:00:00 0,9 -1,8 9 5 31 17 ZZW 976,3 50 0,0
08.12.2017 18:00:00 1,5 -1,4 13 7 30 16 ZZW 975,8 50 0,0
08.12.2017 17:00:00 1,3 -1,1 15 8 29 16 ZZW 975,5 50 0,0
08.12.2017 16:00:00 1,2 -0,5 14 8 25 14 Z 975,0 50 0,0
08.12.2017 15:00:00 1,4 -0,1 13 7 24 13 Z 974,7 48 0,0
08.12.2017 14:00:00 1,6 0,1 16 8 24 13 Z 974,2 50 0,0
08.12.2017 13:00:00 1,2 0,3 14 7 31 17 Z 973,9 7 0,1
08.12.2017 12:00:00 1,6 0,1 17 9 32 17 Z 973,6 44 0,1
08.12.2017 11:00:00 1,4 0,1 16 8 30 16 Z 973,6 29 0,1
08.12.2017 10:00:00 1,1 0,1 16 9 33 18 Z 973,6 5 0,4
08.12.2017 09:00:00 1,7 -0,4 19 10 39 21 Z 973,4 12 0,1
08.12.2017 08:00:00 2,1 -0,3 21 12 41 22 Z 973,2 50 0,0
08.12.2017 07:00:00 2,3 0,4 17 9 34 18 Z 973,1 43 0,0
08.12.2017 06:00:00 2,0 0,8 19 10 39 21 Z 972,8 9 0,5
08.12.2017 05:00:00 1,8 0,6 - - 43 23 - 972,7 9 0,2
08.12.2017 04:00:00 2,4 0,1 20 11 48 26 Z 973,5 29 0,1
08.12.2017 03:00:00 2,6 0,3 23 13 50 27 Z 974,4 11 0,0
08.12.2017 02:00:00 2,9 0,3 32 17 53 29 Z 975,3 21 0,2
08.12.2017 01:00:00 2,7 0,8 - - - - - 976,5 17 0,0
08.12.2017 00:00:00 3,2 0,4 - - - - - 977,7 25 0,0
07.12.2017 23:00:00 3,4 1,4 23 13 50 27 Z 978,2 10 0,2
07.12.2017 22:00:00 3,9 1,1 23 12 58 31 Z 979,3 14 0,0
07.12.2017 21:00:00 4,3 1,2 22 12 52 28 Z 979,6 17 0,0
07.12.2017 20:00:00 4,5 1,7 26 14 66 36 Z 979,7 50 0,0
07.12.2017 19:00:00 5,2 3,1 22 12 50 27 Z 980,1 50 0,0
07.12.2017 18:00:00 5,3 4,4 23 12 49 27 Z 980,3 4,3 0,1
07.12.2017 17:00:00 5,5 4,6 26 14 45 24 Z 980,9 6 0,0
07.12.2017 16:00:00 5,4 4,5 25 14 49 27 Z 981,8 6 0,1
07.12.2017 15:00:00 5,4 4,5 22 12 39 21 Z 983,1 4,3 0,1
07.12.2017 14:00:00 5,1 4,2 22 12 43 23 Z 984,4 7 0,1
07.12.2017 13:00:00 4,4 3,8 19 11 37 20 Z 986,1 6 0,2
07.12.2017 12:00:00 3,7 3,7 18 10 34 18 Z 987,6 5 0,2
07.12.2017 11:00:00 2,8 2,8 16 9 31 17 Z 989,2 8 0,2
07.12.2017 10:00:00 0,1 0,1 8 4 20 11 Z 990,8 2,7 0,1
07.12.2017 09:00:00 -0,4 -0,4 7 4 22 12 ZZO 992,4 1,2 0,1
07.12.2017 08:00:00 -1,4 -1,5 16 9 23 12 ZZO 993,4 1,6 0,0
07.12.2017 07:00:00 -2,1 -2,2 11 6 18 10 ZZO 994,6 1,9 0,0
07.12.2017 06:00:00 -2,5 -2,8 10 6 18 10 ZO 995,9 2,3 0,0
07.12.2017 05:00:00 -2,7 -3,0 12 7 18 10 ZZO 997,2 1,4 0,0
07.12.2017 04:00:00 -3,1 -3,4 9 5 14 8 ZO 998,2 1,4 0,1
07.12.2017 03:00:00 -3,3 -3,6 10 5 16 9 ZZO 999,7 2,2 0,1
07.12.2017 02:00:00 -3,5 -3,9 9 5 17 9 ZZO 1000,8 1,8 0,1
07.12.2017 01:00:00 -4,5 -5,0 2 1 6 4 O 1001,7 2,3 0,2
07.12.2017 00:00:00 -4,8 -5,3 3 1 7 4 OZO 1002,7 2,2 0,5
06.12.2017 23:00:00 -4,8 -5,3 4 2 6 3 O 1003,7 1,7 1,5
06.12.2017 22:00:00 -4,9 -5,4 3 2 6 4 O 1004,8 1,1 1,1
06.12.2017 21:00:00 -5,0 -5,5 2 1 4 2 ONO 1005,6 1,0 0,8
06.12.2017 20:00:00 -5,4 -6,1 1 1 5 3 Z 1006,4 1,2 0,7
06.12.2017 19:00:00 -5,5 -6,2 1 1 3 2 ZO 1007,5 3,1 0,0
06.12.2017 18:00:00 -5,9 -6,6 2 1 4 2 Z 1007,7 8 0,0
06.12.2017 17:00:00 -6,4 -7,2 2 1 4 2 ZZW 1008,3 - 0,0
06.12.2017 16:00:00 -7,0 -7,8 3 2 6 3 Z 1008,6 11 0,0
06.12.2017 15:00:00 -6,6 -7,4 3 2 6 3 ZZO 1009,1 38 0,0
06.12.2017 14:00:00 -6,8 -7,6 2 1 6 3 ZZO 1009,0 38 0,0
06.12.2017 13:00:00 -7,2 -8,0 1 1 5 3 Z 1009,2 47 0,0
06.12.2017 12:00:00 -7,7 -8,6 2 1 5 3 N 1009,7 43 0,0
06.12.2017 11:00:00 -8,5 -9,4 1 1 6 3 ZZO 1010,2 48 0,0
06.12.2017 10:00:00 -9,7 -10,8 3 2 6 3 ZZO 1010,1 50 0,0
06.12.2017 09:00:00 -9,5 -10,6 1 1 4 2 W 1010,0 20 0,0
06.12.2017 08:00:00 -9,7 -10,8 2 1 4 2 ZW 1010,3 48 0,0
06.12.2017 07:00:00 -10,4 -11,6 2 1 4 2 WNW 1010,5 43 0,0
06.12.2017 06:00:00 -11,0 -12,3 3 2 8 5 ZZO 1010,2 50 0,0
06.12.2017 05:00:00 -11,0 -12,2 5 3 8 4 WNW 1010,4 50 0,0
06.12.2017 04:00:00 -12,0 -13,3 1 1 5 3 O 1011,0 50 0,0
06.12.2017 03:00:00 -12,3 -13,7 2 1 8 4 WNW 1011,6 50 0,0
06.12.2017 02:00:00 -12,6 -14,0 2 1 7 4 NNW 1011,7 33 0,0
06.12.2017 01:00:00 -13,6 -15,2 2 1 5 3 OZO 1012,0 33 0,0
06.12.2017 00:00:00 -14,1 -15,7 3 2 6 3 NNW 1011,9 40 0,0
05.12.2017 23:00:00 -14,9 -16,6 3 1 6 3 Z 1011,6 19 0,0
05.12.2017 22:00:00 -14,0 -15,4 3 1 6 4 ZO 1011,4 24 0,0
05.12.2017 21:00:00 -15,9 -17,8 4 2 7 4 Z 1011,5 19 0,0
05.12.2017 20:00:00 -14,0 -15,6 1 1 5 3 O 1011,3 28 0,0
05.12.2017 19:00:00 -13,5 -14,9 2 1 7 4 O 1011,1 28 0,0
05.12.2017 18:00:00 -13,0 -14,6 4 2 13 7 O 1010,2 34 0,0
05.12.2017 17:00:00 -12,2 -13,5 4 2 11 6 WNW 1009,3 43 0,0
05.12.2017 16:00:00 -10,0 -11,1 4 2 8 5 W 1008,2 50 0,0
05.12.2017 15:00:00 -9,6 -10,7 3 2 8 4 WZW 1007,2 50 0,0
05.12.2017 14:00:00 -8,8 -10,0 2 1 10 5 ONO 1006,7 44 0,0
05.12.2017 13:00:00 -8,0 -8,9 4 2 6 3 ZZO 1006,6 15 0,0
05.12.2017 12:00:00 -9,6 -10,7 3 2 8 4 ZO 1006,4 37 0,0
05.12.2017 11:00:00 -11,9 -13,2 2 1 7 4 Z 1006,3 40 0,0
05.12.2017 10:00:00 -14,0 -15,6 1 1 7 4 NW 1007,2 50 0,0
05.12.2017 09:00:00 -13,9 -15,5 1 1 4 2 OZO 1007,8 47 0,0
05.12.2017 08:00:00 -13,9 -15,5 2 1 6 3 ZO 1008,2 50 0,0
05.12.2017 07:00:00 -12,9 -14,2 3 2 6 4 NNW 1008,8 50 0,0
05.12.2017 06:00:00 -12,1 -13,5 5 3 7 4 NNW 1009,7 50 0,0
05.12.2017 05:00:00 -11,8 -13,1 1 1 4 2 WNW 1011,2 50 0,0
05.12.2017 04:00:00 -13,0 -14,4 3 2 5 3 NNW 1012,3 50 0,0

tt = temperatuur
td = dauwpunt
ff = windsnelheid
fx = windstoten
dd = windrichting
ppp = luchtdruk
vv = zicht
rr = neerslag

Weerstations in de omgeving